CAPE
20 23 21 24 21 21 15 10 8 7 14 12 8 8 9 12 5 0 0 0 0 0 0 0 0 0 0 0 0 0 0 0 0 0 0 0 0 0 0 0 0 0 0 0 0
11 9 14 9 11 12 9 7 8 8 5 3 3 2 9 17 11 0 0 0 0 0 0 0 0 0 0 0 0 0 0 0 0 0 0 0 0 0 0 0 0 0 0 0 0
23 17 19 16 15 12 14 15 15 11 9 8 4 12 14 20 0 0 0 0 0 0 0 0 0 0 0 0 0 0 0 0 0 0 0 0 0 0 0 0 0 0 0 0 0
19 17 20 19 20 15 11 11 12 11 12 9 9 8 22 17 0 0 3 16 0 0 0 0 0 0 0 0 0 0 0 0 0 0 0 0 0 0 0 0 0 0 0 0 0
22 22 21 21 21 21 22 16 11 7 6 7 10 5 24 4 0 0 0 181 5 0 0 0 0 0 0 0 0 0 0 0 0 0 0 0 0 0 0 0 0 0 0 0 0
34 29 25 28 27 22 16 7 5 4 1 2 3 12 13 0 0 0 0 0 0 0 0 0 0 0 0 0 0 0 0 0 0 0 0 0 0 0 0 0 0 0 0 0 0
53 36 39 38 34 5 5 4 4 4 0 2 0 5 20 0 0 0 0 0 0 0 0 0 0 0 0 0 0 0 0 0 0 0 0 0 0 0 0 0 0 0 0 0 0
44 44 51 54 24 1 11 11 14 0 0 0 1 7 4 0 0 0 0 0 0 0 0 0 0 0 0 0 0 0 0 0 0 0 0 0 0 0 0 0 0 0 0 0 0
48 56 70 70 32 26 70 38 0 0 0 2 3 9 0 0 0 0 0 0 0 0 0 0 0 0 0 0 0 0 0 0 0 0 0 0 0 0 0 0 0 0 0 0 0
26 51 64 63 50 86 85 0 0 0 17 1 31 24 0 0 0 0 0 0 0 0 0 0 0 0 0 0 0 0 0 0 0 0 0 0 0 0 0 0 0 0 0 0 0
22 54 41 81 96 75 3 0 0 0 0 0 0 0 0 0 0 0 0 0 0 0 0 0 0 0 0 0 0 0 0 0 0 0 0 0 0 0 0 0 0 0 0 0 0
72 117 62 89 61 62 0 0 0 35 12 0 0 0 0 0 0 0 0 0 0 0 0 0 0 0 0 0 0 0 0 0 0 0 0 0 0 0 0 0 0 0 0 0 0
41 40 73 92 46 5 0 0 0 5 51 0 0 0 0 14 0 0 0 0 0 0 0 0 0 0 0 0 0 0 0 0 0 0 0 0 0 0 0 0 0 0 0 0 0
26 26 45 121 9 0 0 0 0 0 9 0 7 0 1 18 28 0 0 0 0 0 0 0 0 0 0 0 0 0 0 0 0 0 0 0 0 0 0 0 0 0 0 0 0
48 8 31 52 13 3 0 0 0 9 0 0 11 26 1 1 0 0 0 0 0 0 0 0 0 0 0 0 0 0 0 0 0 0 0 0 0 0 0 0 0 0 0 0 0
56 40 59 0 0 0 0 0 0 16 0 0 0 0 13 28 10 0 0 0 0 0 0 0 0 0 0 0 0 0 0 0 0 0 0 0 0 0 0 0 0 0 0 0 0
21 38 2 0 0 0 0 0 0 2 2 0 0 0 0 0 34 2 0 0 2 6 8 0 0 0 0 0 0 0 0 0 0 0 0 0 0 0 0 0 0 0 0 0 0
10 0 0 0 0 0 0 0 0 0 0 0 1 0 5 0 0 0 5 0 0 0 0 1 0 0 0 0 0 0 0 0 0 0 0 0 0 0 0 0 0 0 0 0 0
0 0 0 0 0 0 0 0 0 0 0 0 0 0 0 0 0 0 0 11 16 4 4 7 0 0 0 0 0 0 0 0 0 0 0 0 0 0 0 0 0 0 0 0 0
0 0 0 0 0 0 0 0 0 0 0 0 10 10 0 0 0 0 0 6 8 13 7 0 5 0 0 0 0 0 0 0 0 0 0 0 0 0 0 0 0 0 0 0 0
0 0 0 0 0 0 0 0 0 0 0 0 2 8 5 0 0 0 1 0 1 2 0 5 15 1 0 1 0 0 0 0 0 0 0 0 0 0 0 0 0 0 0 0 0
0 0 0 0 0 0 0 0 11 0 0 0 4 4 4 0 0 0 0 0 0 25 1 13 5 2 0 0 0 0 0 0 0 0 0 0 0 0 0 0 0 0 0 0 0
1 0 0 0 0 0 0 0 2 0 0 0 0 6 0 0 0 0 0 0 0 0 7 7 1 2 0 0 0 0 0 0 0 0 0 0 0 0 0 0 0 0 0 0 0
1 1 0 0 0 0 0 0 0 0 0 0 0 0 0 0 0 0 0 0 0 0 0 29 13 3 0 0 0 0 0 0 0 0 0 0 0 0 0 0 0 0 0 0 0
1 0 3 0 0 0 2 2 1 11 0 0 0 0 0 0 0 0 0 0 0 0 12 5 6 0 0 0 0 0 0 0 0 0 0 0 0 0 0 0 0 0 0 0 0
0 1 0 0 0 0 0 0 2 0 0 0 0 0 0 0 0 0 0 0 0 0 0 4 1 4 0 3 0 0 0 0 0 0 0 0 0 0 0 0 0 0 0 0 0
3 4 7 0 0 0 0 12 14 3 0 0 0 0 0 0 0 0 0 0 0 0 0 1 6 5 3 0 0 0 0 0 0 0 0 0 0 0 0 0 0 0 0 0 0
CIN
-0 -0 -0 -0 -0 -0 -0 -0 -0 -0 -0 -0 -0 -0 -0 -0 -0 -0 -0 -0 -0 -0 -0 -0 -0 -0 -0 -0 -0 -0 -0 -0 -0 -0 -0 -0 -0 -0 -0 -0 -0 -0 -0 -0 -0
-0 -0 -0 -0 -0 -0 -0 -0 -0 -0 -0 -0 -1 -0 -0 -0 -0 -0 -0 -0 -0 -0 -0 -0 -0 -0 -0 -0 -0 -0 -0 -0 -0 -0 -0 -0 -0 -0 -0 -0 -0 -0 -0 -0 -0
-0 -0 -0 -0 -0 -0 -0 -0 -0 -0 -0 -0 -0 -0 -0 -1 -0 -0 -0 -0 -0 -0 -0 -0 -0 -0 -0 -0 -0 -0 -0 -0 -0 -0 -0 -0 -0 -0 -0 -0 -0 -0 -0 -0 -0
-0 -0 -0 -0 -0 -0 -0 -0 -0 -0 -0 -0 -0 -0 -0 -0 -0 -0 -47 -41 -0 -0 -0 -0 -0 -0 -0 -0 -0 -0 -0 -0 -0 -0 -0 -0 -0 -0 -0 -0 -0 -0 -0 -0 -0
-0 -0 -0 -0 -0 -0 -0 -0 -0 -0 -0 -0 -0 -0 -0 -1 -0 -0 -0 -217 -150 -0 -0 -0 -0 -0 -0 -0 -0 -0 -0 -0 -0 -0 -0 -0 -0 -0 -0 -0 -0 -0 -0 -0 -0
-0 -0 -0 -0 -0 -0 -0 -0 -0 -0 -0 -0 -0 -0 -0 -0 -0 -0 -0 -0 -0 -0 -0 -0 -0 -0 -0 -0 -0 -0 -0 -0 -0 -0 -0 -0 -0 -0 -0 -0 -0 -0 -0 -0 -0
-0 -0 -0 -0 -0 -0 -0 -0 -0 -0 -0 -0 -0 -0 -0 -0 -0 -0 -0 -0 -0 -0 -0 -0 -0 -0 -0 -0 -0 -0 -0 -0 -0 -0 -0 -0 -0 -0 -0 -0 -0 -0 -0 -0 -0
-0 -0 -0 -0 -0 -0 -0 -0 -0 -0 -0 -0 -0 -0 -0 -0 -0 -0 -0 -0 -0 -0 -0 -0 -0 -0 -0 -0 -0 -0 -0 -0 -0 -0 -0 -0 -0 -0 -0 -0 -0 -0 -0 -0 -0
-0 -0 -0 -0 -0 -0 -0 -0 -0 -0 -0 -0 -0 -0 -0 -0 -0 -0 -0 -0 -0 -0 -0 -0 -0 -0 -0 -0 -0 -0 -0 -0 -0 -0 -0 -0 -0 -0 -0 -0 -0 -0 -0 -0 -0
-0 -0 -0 -0 -0 -0 -0 -0 -0 -0 -14 -8 -0 -0 -0 -0 -0 -0 -0 -0 -0 -0 -0 -0 -0 -0 -0 -0 -0 -0 -0 -0 -0 -0 -0 -0 -0 -0 -0 -0 -0 -0 -0 -0 -0
-0 -0 -0 -0 -0 -0 -0 -0 -0 -0 -0 -0 -0 -0 -0 -0 -0 -0 -0 -0 -0 -0 -0 -0 -0 -0 -0 -0 -0 -0 -0 -0 -0 -0 -0 -0 -0 -0 -0 -0 -0 -0 -0 -0 -0
-0 -0 -0 -0 -0 -5 -0 -0 -4 -6 -0 -0 -0 -0 -0 -0 -0 -0 -0 -0 -0 -0 -0 -0 -0 -0 -0 -0 -0 -0 -0 -0 -0 -0 -0 -0 -0 -0 -0 -0 -0 -0 -0 -0 -0
-0 -0 -0 -0 -0 -7 -0 -0 -0 -9 -0 -0 -0 -0 -0 -1 -0 -0 -0 -0 -0 -0 -0 -0 -0 -0 -0 -0 -0 -0 -0 -0 -0 -0 -0 -0 -0 -0 -0 -0 -0 -0 -0 -0 -0
-0 -0 -0 -0 -3 -0 -0 -0 -0 -18 -0 -0 -2 -1 -0 -1 -0 -0 -0 -0 -0 -0 -0 -0 -0 -0 -0 -0 -0 -0 -0 -0 -0 -0 -0 -0 -0 -0 -0 -0 -0 -0 -0 -0 -0
-0 -0 -1 -1 -1 -0 -0 -0 -0 -5 -0 -0 -6 -39 -10 -22 -2 -0 -0 -0 -0 -0 -0 -0 -0 -0 -0 -0 -0 -0 -0 -0 -0 -0 -0 -0 -0 -0 -0 -0 -0 -0 -0 -0 -0
-0 -2 -1 -0 -0 -0 -0 -0 -0 -0 -0 -0 -0 -28 -49 -1 -35 -5 -0 -0 -0 -0 -0 -0 -0 -0 -0 -0 -0 -0 -0 -0 -0 -0 -0 -0 -0 -0 -0 -0 -0 -0 -0 -0 -0
-0 -15 -0 -0 -0 -0 -0 -0 -0 -3 -1 -0 -0 -0 -16 -0 -12 -10 -0 -0 -9 -25 -17 -0 -0 -0 -0 -0 -0 -0 -0 -0 -0 -0 -0 -0 -0 -0 -0 -0 -0 -0 -0 -0 -0
-0 -0 -0 -0 -0 -0 -0 -0 -0 -1 -0 -0 -0 -0 -7 -0 -0 -0 -17 -0 -0 -0 -0 -19 -0 -0 -0 -0 -0 -0 -0 -0 -0 -0 -0 -0 -0 -0 -0 -0 -0 -0 -0 -0 -0
-0 -0 -0 -0 -0 -0 -0 -0 -0 -0 -0 -0 -0 -0 -3 -0 -0 -0 -0 -9 -0 -0 -0 -9 -0 -0 -0 -0 -0 -0 -0 -0 -0 -0 -0 -0 -0 -0 -0 -0 -0 -0 -0 -0 -0
-0 -0 -0 -0 -0 -0 -0 -0 -0 -0 -0 -0 -1 -2 -0 -0 -0 -0 -0 -0 -0 -0 -0 -0 -1 -0 -0 -0 -0 -0 -0 -0 -0 -0 -0 -0 -0 -0 -0 -0 -0 -0 -0 -0 -0
-0 -0 -0 -0 -0 -0 -0 -0 -0 -0 -0 -0 -2 -1 -2 -0 -0 -0 -0 -0 -0 -0 -0 -0 -0 -2 -0 -9 -0 -0 -0 -0 -0 -0 -0 -0 -0 -0 -0 -0 -0 -0 -0 -0 -0
-0 -0 -0 -0 -0 -0 -0 -0 -4 -0 -0 -0 -12 -11 -5 -0 -0 -0 -0 -0 -0 -2 -0 -0 -0 -0 -0 -0 -0 -0 -0 -0 -0 -0 -0 -0 -0 -0 -0 -0 -0 -0 -0 -0 -0
-0 -0 -0 -0 -0 -0 -0 -0 -1 -0 -0 -0 -0 -7 -14 -0 -0 -0 -0 -0 -0 -0 -2 -0 -0 -0 -0 -0 -0 -0 -0 -0 -0 -0 -0 -0 -0 -0 -0 -0 -0 -0 -0 -0 -0
-0 -0 -0 -0 -0 -0 -0 -0 -1 -0 -0 -0 -0 -0 -0 -0 -0 -0 -0 -0 -0 -0 -0 -0 -0 -0 -0 -0 -0 -0 -0 -0 -0 -0 -0 -0 -0 -0 -0 -0 -0 -0 -0 -0 -0
-0 -0 -4 -0 -0 -0 -0 -1 -0 -0 -0 -0 -0 -3 -0 -0 -0 -0 -0 -0 -0 -0 -3 -0 -0 -0 -0 -0 -0 -0 -0 -0 -0 -0 -0 -0 -0 -0 -0 -0 -0 -0 -0 -0 -0
-0 -0 -0 -0 -0 -0 -0 -0 -0 -0 -0 -0 -0 -0 -0 -0 -0 -0 -0 -0 -0 -0 -0 -5 -0 -0 -0 -0 -0 -0 -0 -0 -0 -0 -0 -0 -0 -0 -0 -0 -0 -0 -0 -0 -0
-0 -0 -0 -0 -0 -0 -0 -0 -0 -0 -0 -0 -0 -0 -0 -0 -0 -0 -0 -0 -0 -0 -0 -3 -0 -0 -0 -0 -1 -0 -0 -0 -0 -0 -0 -0 -0 -0 -0 -0 -0 -0 -0 -0 -0
Wind_Speed
23 23 23 24 24 24 23 22 21 20 19 18 16 15 16 15 12 5 14 12 13 16 2 6 6 6 5 6 4 3 1 5 10 8 12 3 4 3 2 6 3 7 6 1 22
22 23 23 24 24 24 25 24 24 23 22 20 19 16 14 12 9 18 15 20 24 13 9 13 10 9 5 7 6 6 6 12 6 9 5 6 9 9 6 6 4 3 5 15 21
25 25 25 25 26 26 27 27 26 26 25 23 22 20 14 4 6 13 22 35 30 24 14 8 9 9 6 5 7 8 17 14 7 6 6 4 4 9 8 4 8 15 10 19 19
23 24 25 26 27 27 27 27 27 28 27 25 23 19 17 2 13 4 5 15 29 16 12 9 7 9 8 11 8 6 12 11 6 8 6 6 5 6 9 11 10 11 21 22 22
25 26 26 27 28 29 29 30 30 28 27 26 22 18 11 8 17 8 4 8 12 14 20 14 13 11 12 8 6 8 9 8 8 7 7 3 9 10 9 11 5 12 15 24 24
24 27 29 30 31 31 32 33 33 34 30 27 23 18 11 28 7 13 11 9 11 15 12 8 9 5 7 8 16 7 13 12 7 9 7 9 7 7 9 5 7 13 16 21 23
27 26 27 28 30 34 34 36 38 37 32 27 22 12 20 30 6 3 6 12 11 19 16 17 9 8 5 3 9 3 5 4 6 6 8 6 9 12 10 7 11 15 16 18 21
26 27 27 28 29 32 34 36 37 39 34 26 18 12 19 10 25 29 21 7 6 11 11 15 11 8 5 4 1 6 3 11 15 11 7 13 19 11 12 12 16 14 14 17 20
28 27 28 28 29 31 32 36 35 36 27 12 8 12 13 2 13 22 25 18 9 5 5 5 8 7 5 3 3 6 14 12 11 12 6 9 14 13 11 12 15 13 15 16 16
29 29 29 30 31 31 35 30 32 21 6 6 5 8 7 4 5 7 16 17 6 10 6 7 5 9 9 13 25 9 9 6 11 8 9 7 18 9 3 9 15 10 11 15 17
31 31 31 30 31 33 21 9 10 6 13 13 25 28 35 14 19 9 6 14 8 10 16 12 14 26 32 25 8 7 10 11 3 4 7 17 20 19 10 3 8 10 10 16 20
31 30 32 31 32 34 8 6 4 3 15 14 23 26 21 17 17 21 3 12 12 22 12 6 31 27 15 21 22 20 9 11 5 3 8 8 21 17 9 14 17 15 12 18 18
31 30 31 29 31 8 13 8 6 8 9 12 17 12 11 9 21 25 11 13 19 20 22 29 32 14 22 22 25 26 27 15 5 3 3 7 11 6 9 16 11 12 16 13 19
31 31 30 30 12 8 11 6 5 4 7 9 3 6 11 17 11 7 17 14 11 26 20 21 22 25 15 27 23 27 19 14 9 4 7 6 14 13 9 17 12 18 16 19 17
30 31 29 26 10 6 8 11 13 1 5 8 3 6 13 1 12 5 21 19 20 14 16 15 10 17 23 29 17 15 12 16 9 9 4 9 3 8 5 12 11 16 17 18 18
31 31 30 11 2 7 8 14 1 1 7 10 14 19 15 6 4 7 10 14 7 6 11 28 8 19 27 12 23 9 7 5 4 5 7 19 15 23 19 8 7 10 16 17 13
34 31 18 4 4 8 9 5 6 3 14 15 21 19 17 14 9 13 8 8 6 14 14 12 12 4 7 9 6 9 11 3 1 4 17 11 13 18 11 11 13 14 17 14 10
33 27 12 4 6 6 4 7 8 11 6 16 15 22 7 13 12 17 6 8 5 15 4 16 16 13 5 10 11 24 17 8 11 9 7 4 11 8 14 21 18 14 16 7 9
29 6 5 4 6 3 6 6 3 5 7 13 17 8 7 12 11 13 7 2 9 15 7 4 26 4 11 7 16 6 19 20 7 3 4 7 5 8 10 12 10 15 10 9 8
9 5 5 7 5 5 6 3 3 4 8 7 7 8 11 12 10 10 6 4 6 10 5 6 5 15 16 6 3 15 20 5 2 7 7 5 3 6 3 9 11 10 12 6 4
4 6 4 12 3 5 2 5 5 8 8 4 4 6 6 11 13 6 7 5 7 13 15 7 6 2 7 16 16 6 11 6 5 5 8 3 7 9 10 9 9 10 6 4 6
3 5 4 6 5 1 2 3 7 6 3 5 4 2 3 11 9 5 8 9 19 10 16 5 8 8 7 4 7 20 10 17 12 13 3 3 7 4 7 4 3 9 7 4 7
7 5 4 4 3 8 4 7 6 5 5 4 4 4 3 5 6 7 7 9 15 16 5 7 4 6 6 3 5 7 6 16 9 2 11 9 8 2 4 5 3 5 5 5 8
4 6 5 4 1 4 12 5 6 6 7 4 6 2 4 12 5 8 19 10 10 18 20 8 6 10 10 12 4 13 21 12 20 16 18 11 4 4 6 8 6 1 4 6 7
2 4 3 6 7 14 11 8 13 5 3 2 5 4 3 8 16 9 14 20 13 11 3 5 9 8 15 25 11 8 8 21 14 20 15 13 9 8 7 6 6 2 6 8 9
2 3 3 5 7 8 8 2 11 6 1 8 3 16 12 6 12 23 18 16 14 9 2 1 9 9 19 14 8 5 12 13 17 18 9 6 5 7 4 0 2 6 7 8 9
1 2 2 5 5 5 5 12 10 7 7 4 12 12 15 16 15 21 22 23 21 18 12 7 5 4 6 13 6 3 3 15 6 17 5 3 11 10 4 4 4 6 7 8 9
Wind_Direction
356 355 352 349 346 343 340 336 333 330 324 317 313 310 300 294 289 236 233 224 207 229 133 114 139 164 140 176 173 120 296 223 230 185 233 134 178 179 166 128 196 185 140 287 136
353 350 348 345 341 338 334 330 327 324 322 319 313 309 302 300 276 250 227 236 233 232 171 167 183 153 182 188 190 157 191 226 209 210 227 205 179 176 157 156 236 187 82 133 149
353 349 347 344 340 337 333 330 326 322 318 316 314 314 309 301 273 255 205 219 218 207 206 165 130 153 189 170 201 195 218 221 234 213 195 215 224 177 155 228 197 196 158 158 163
351 350 347 343 339 335 332 328 325 319 313 312 310 310 309 236 231 213 179 212 211 197 165 169 152 170 190 203 194 215 233 210 188 212 168 205 162 186 196 211 201 199 161 161 172
349 346 344 341 337 333 330 326 320 315 309 305 302 302 298 219 241 257 19 64 165 163 189 189 183 174 186 196 169 228 221 202 216 221 233 162 213 218 220 235 75 136 158 176 180
341 340 340 339 336 332 329 324 317 312 301 294 289 289 264 241 284 245 244 138 153 163 184 180 220 221 195 198 188 220 230 241 198 215 208 192 235 156 237 146 147 157 182 185 186
344 342 340 336 333 329 325 321 318 308 301 285 271 257 252 239 232 25 182 203 170 182 177 190 179 165 160 273 224 202 258 286 234 211 226 147 261 216 216 161 189 196 188 191 197
341 338 336 333 329 321 321 320 315 304 299 281 256 234 252 207 236 265 269 267 201 196 200 187 151 167 172 264 350 168 149 242 247 162 227 147 258 239 198 182 217 198 195 195 200
336 335 335 332 327 321 324 318 309 301 301 265 213 195 259 199 232 228 230 223 184 158 183 130 144 170 147 155 332 242 226 208 250 198 146 174 249 258 175 183 227 211 204 201 202
335 335 334 333 328 324 326 322 300 297 337 187 232 188 270 242 347 271 229 212 176 136 118 165 167 172 187 179 216 219 228 217 215 203 195 191 246 247 167 175 224 219 208 204 204
335 335 335 335 330 330 340 333 3 355 10 301 293 288 295 291 322 322 322 175 146 168 187 179 193 206 201 206 224 264 227 262 326 189 139 214 232 239 231 218 240 229 208 209 212
334 331 332 333 331 324 348 343 275 304 300 284 268 273 265 264 280 270 195 191 200 206 154 161 217 211 192 201 211 226 238 237 313 202 185 223 240 242 221 231 224 227 213 214 217
332 332 329 330 325 337 330 266 277 341 285 274 256 257 275 253 247 255 178 208 205 213 205 206 219 177 190 186 201 216 220 218 197 42 299 2 272 207 233 237 223 224 226 217 204
330 332 332 331 318 332 301 278 333 323 299 277 337 36 355 319 252 282 261 203 214 210 202 232 225 197 190 208 194 218 208 209 189 133 237 150 277 246 203 236 215 227 220 226 212
331 328 331 329 300 308 265 316 320 211 351 319 359 224 302 257 256 347 326 209 219 188 180 213 195 204 207 218 197 229 152 194 179 201 99 226 262 267 188 225 226 229 230 229 223
329 327 327 326 269 244 305 309 30 266 265 323 333 325 348 17 267 304 22 346 205 217 225 211 190 190 216 195 201 124 87 76 78 117 244 233 213 262 241 210 237 237 234 228 215
332 331 336 335 265 307 319 348 26 8 343 332 327 336 320 348 1 1 360 335 287 217 210 217 228 266 132 167 150 172 145 145 142 173 239 195 214 236 254 234 226 217 238 234 186
334 333 322 299 295 310 24 36 57 337 316 308 313 315 6 17 336 338 324 329 336 246 222 221 225 205 201 197 173 195 180 165 193 191 213 156 224 238 216 232 238 227 244 220 200
334 328 322 303 329 12 61 43 270 326 308 319 322 338 341 1 344 352 309 302 47 24 313 271 237 222 167 171 160 195 211 208 90 34 89 223 291 286 220 246 249 247 245 228 203
327 342 292 319 327 56 66 274 265 275 317 325 326 352 324 350 348 334 286 80 19 30 341 281 269 219 205 134 218 165 198 202 203 159 219 254 225 222 158 241 261 269 243 240 200
13 349 266 333 52 43 96 244 278 299 326 328 298 310 326 327 322 306 312 2 26 2 340 280 261 318 141 199 194 175 182 184 193 176 203 249 244 208 218 212 242 275 297 210 184
9 336 311 1 42 70 311 256 304 302 308 286 289 282 295 326 323 318 315 314 5 353 334 322 300 231 208 286 220 216 188 187 201 229 271 177 248 194 200 206 229 280 258 195 151
330 275 315 43 31 335 292 286 268 297 296 312 287 258 311 312 325 296 305 312 322 337 342 325 327 306 183 6 318 198 173 193 197 113 207 209 242 305 252 264 219 265 243 143 124
332 317 318 20 332 320 315 331 308 317 282 240 271 346 347 316 253 281 290 300 331 306 304 281 247 228 278 217 134 200 200 192 196 218 222 231 260 289 278 263 295 351 153 132 126
12 274 310 307 323 311 303 293 300 314 290 5 309 250 250 296 307 282 299 301 311 312 97 4 263 273 272 263 237 189 193 208 199 213 211 224 203 230 235 250 253 203 148 142 149
291 288 302 270 289 310 303 298 301 306 277 307 242 305 308 235 271 291 292 296 282 292 66 164 274 304 293 219 188 156 196 196 221 229 231 140 235 237 283 120 183 178 176 183 181
289 269 262 275 311 314 311 326 305 325 277 232 291 301 302 294 291 279 276 271 261 266 264 242 252 298 280 154 119 71 281 184 158 31 304 321 358 334 347 307 252 228 211 194 182